DW7889 Weather Reports


Display with metric or nautical units.
time (UTC)temp
F
wind
direction
speed
MPH
gust
MPH
rain 1hr
in
rain 24hr
in
rain mn
in
humidity
%
barometer
mb
20260905043546 48 208 1.0 3.0 0.00 0.00 0.00 92 1017.5
20260905043029 48 183 2.0 4.0 0.00 0.00 0.00 92 1017.5
20260905042532 48 174 2.0 4.0 0.00 0.00 0.00 92 1017.5
20260905042053 48 179 2.0 4.0 0.00 0.00 0.00 92 1017.4
20260905041531 48 169 2.0 3.0 0.00 0.00 0.00 92 1017.4
20260905041034 48 155 1.0 3.0 0.00 0.00 0.00 92 1017.6
20260905040538 48 155 1.0 3.0 0.00 0.00 0.00 92 1017.5
20260905040101 48 153 1.0 3.0 0.00 0.00 0.00 92 1017.6
20260905035542 48 171 1.0 3.0 0.00 0.00 0.00 92 1017.9
20260905035042 48 166 1.0 2.0 0.00 0.00 0.00 92 1017.9
20260905034545 49 162 1.0 2.0 0.00 0.00 0.00 92 1017.9
20260905034031 48 187 1.0 3.0 0.00 0.00 0.00 92 1017.7
20260905033534 49 162 2.0 3.0 0.00 0.00 0.00 92 1017.6
20260905033032 49 154 2.0 4.0 0.00 0.00 0.00 92 1017.8
20260905032533 49 134 2.0 4.0 0.00 0.00 0.00 92 1017.8
20260905032036 49 134 2.0 6.0 0.00 0.00 0.00 92 1017.9
20260905031137 49 160 327.0 327.0 0.00 0.00 0.00 92 1018.1
20260905024543 49 179 2.0 5.0 0.00 0.00 0.00 92 1018.0
20260905024044 49 186 3.0 8.0 0.00 0.00 0.00 92 1017.9
20260905023607 49 188 4.0 9.0 0.00 0.00 0.00 92 1018.1
20260905023030 49 209 7.0 9.0 0.00 0.00 0.00 91 1017.9
20260905022535 50 212 4.0 6.0 0.00 0.00 0.00 90 1018.0
20260905022036 50 233 4.0 6.0 0.00 0.00 0.00 90 1018.1
20260905021539 50 227 4.0 6.0 0.00 0.00 0.00 89 1018.1
20260905021038 50 240 3.0 4.0 0.00 0.00 0.00 89 1018.1
20260905020540 50 263 2.0 7.0 0.00 0.00 0.00 88 1018.1
20260905020030 51 251 5.0 7.0 0.00 0.00 0.00 88 1018.3
20260905015531 51 260 3.0 5.0 0.00 0.00 0.00 87 1018.3
20260905015054 51 214 3.0 5.0 0.00 0.00 0.00 87 1018.2
20260905014532 51 212 3.0 5.0 0.00 0.00 0.00 86 1018.1
20260905014036 51 210 4.0 7.0 0.00 0.00 0.00 86 1018.0
20260905013539 51 221 4.0 7.0 0.00 0.00 0.00 85 1018.1
20260905013038 52 244 4.0 6.0 0.00 0.00 0.00 84 1018.1
20260905012541 52 233 4.0 6.0 0.00 0.00 0.00 84 1018.1
20260905012042 52 233 5.0 8.0 0.00 0.00 0.00 83 1018.1
20260905011542 52 212 4.0 11.0 0.00 0.00 0.00 81 1018.1
20260905011045 53 195 7.0 11.0 0.00 0.00 0.00 81 1018.1
20260905010528 52 287 1.0 2.0 0.00 0.00 0.00 82 1018.0
20260905010029 52 32 0.0 1.0 0.00 0.00 0.00 82 1017.9
20260905005530 52 32 0.0 1.0 0.00 0.00 0.00 82 1017.9
20260905005037 52 108 0.0 0.0 0.00 0.00 0.00 82 1017.6
20260905004542 53 136 0.0 1.0 0.00 0.00 0.00 82 1017.5
20260905004044 53 136 0.0 1.0 0.00 0.00 0.00 82 1017.5
20260905003547 53 136 0.0 0.0 0.00 0.00 0.00 82 1017.5
20260905003048 53 136 0.0 0.0 0.00 0.00 0.00 81 1017.6
20260905002529 53 136 0.0 1.0 0.00 0.00 0.00 81 1017.7
20260905002031 53 136 0.0 1.0 0.00 0.00 0.00 81 1017.7
20260905001553 53 136 0.0 2.0 0.00 0.00 0.00 81 1017.7
20260905001034 53 115 1.0 2.0 0.00 0.00 0.00 80 1017.6
20260905000536 53 122 1.0 2.0 0.00 0.00 0.00 81 1017.5
20260905000059 53 129 1.0 2.0 0.00 0.00 0.00 81 1017.6
20260904235539 54 129 0.0 0.0 0.00 0.00 0.00 81 1017.8
20260904235040 54 129 0.0 1.0 0.00 0.00 0.00 80 1017.6
20260904234540 54 128 0.0 2.0 0.00 0.00 0.00 79 1017.7
20260904234038 54 128 1.0 2.0 0.00 0.00 0.00 79 1017.6
20260904233544 54 192 0.0 3.0 0.00 0.00 0.00 79 1017.5
20260904233047 54 192 1.0 3.0 0.00 0.00 0.00 79 1017.5
20260904232528 54 183 1.0 3.0 0.00 0.00 0.00 79 1017.4
20260904232029 54 170 0.0 0.0 0.00 0.00 0.00 79 1017.4
20260904231554 54 187 0.0 0.0 0.00 0.00 0.00 79 1017.4
20260904231036 54 187 0.0 3.0 0.00 0.00 0.00 79 1017.3
20260904230538 54 166 1.0 3.0 0.00 0.00 0.00 78 1017.3
20260904230039 54 171 2.0 3.0 0.00 0.00 0.00 78 1017.1
20260904225541 54 205 2.0 3.0 0.00 0.00 0.00 77 1017.1
20260904225045 54 197 0.0 5.0 0.00 0.00 0.00 78 1017.1
20260904224547 54 161 3.0 5.0 0.00 0.00 0.00 77 1017.0
20260904224028 54 202 2.0 4.0 0.00 0.00 0.00 77 1017.1
20260904223530 54 209 2.0 4.0 0.00 0.00 0.00 78 1017.0
20260904223037 55 165 3.0 5.0 0.00 0.00 0.00 77 1016.9
20260904222539 55 188 3.0 7.0 0.00 0.00 0.00 77 1016.8
20260904222041 55 207 4.0 7.0 0.00 0.00 0.00 77 1016.8
20260904221543 55 195 3.0 4.0 0.00 0.00 0.00 78 1016.8
20260904221045 55 178 2.0 4.0 0.00 0.00 0.00 77 1016.8
20260904220527 55 154 3.0 4.0 0.00 0.00 0.00 77 1016.8
20260904220033 55 191 2.0 4.0 0.00 0.00 0.00 78 1017.0
20260904215536 55 160 3.0 4.0 0.00 0.00 0.00 78 1016.9
20260904215037 55 183 2.0 6.0 0.00 0.00 0.00 79 1016.9
20260904214535 55 244 1.0 7.0 0.00 0.00 0.00 78 1016.9
20260904214037 56 206 5.0 7.0 0.00 0.00 0.00 78 1016.9
20260904213559 56 205 4.0 7.0 0.00 0.00 0.00 77 1016.8
20260904213100 56 174 3.0 6.0 0.00 0.00 0.00 77 1016.8
20260904212540 56 206 3.0 5.0 0.00 0.00 0.00 76 1016.6
20260904212041 57 224 3.0 6.0 0.00 0.00 0.00 76 1016.5
20260904211546 57 197 3.0 6.0 0.00 0.00 0.00 75 1016.5
20260904211047 57 185 2.0 4.0 0.00 0.00 0.00 75 1016.5
20260904205050 57 183 2.0 6.0 0.00 0.00 0.00 75 1016.5
20260904204530 57 220 3.0 6.0 0.00 0.00 0.00 74 1016.6
20260904204052 57 190 5.0 6.0 0.00 0.00 0.00 74 1016.5
20260904203534 58 220 3.0 5.0 0.00 0.00 0.00 73 1016.5
20260904203036 58 262 3.0 5.0 0.00 0.00 0.00 73 1016.5
20260904202539 58 182 2.0 5.0 0.00 0.00 0.00 72 1016.1
20260904202044 58 186 4.0 6.0 0.00 0.00 0.00 72 1016.2
20260904201546 58 219 4.0 6.0 0.00 0.00 0.00 71 1016.3
20260904201046 59 202 3.0 7.0 0.00 0.00 0.00 70 1016.2
20260904200544 59 205 4.0 6.0 0.00 0.00 0.00 69 1016.2
20260904200107 59 264 5.0 7.0 0.00 0.00 0.00 68 1016.2
20260904195529 59 221 3.0 8.0 0.00 0.00 0.00 67 1016.0
20260904195032 59 214 4.0 8.0 0.00 0.00 0.00 67 1015.9
20260904194553 60 229 4.0 8.0 0.00 0.00 0.00 67 1016.1
20260904194053 60 241 4.0 7.0 0.00 0.00 0.00 66 1016.1
20260904193536 60 185 4.0 7.0 0.00 0.00 0.00 65 1016.1
20260904193057 60 223 4.0 9.0 0.00 0.00 0.00 65 1016.0
20260904192536 60 199 4.0 9.0 0.00 0.00 0.00 67 1016.0
20260904192038 60 247 7.0 9.0 0.00 0.00 0.00 65 1015.8
20260904191541 60 203 4.0 9.0 0.00 0.00 0.00 64 1015.5
20260904190545 61 228 8.0 9.0 0.00 0.00 0.00 59 1015.9
20260904190046 61 212 3.0 8.0 0.00 0.00 0.00 57 1015.8
20260904185545 61 228 5.0 8.0 0.00 0.00 0.00 57 1015.9
20260904185043 61 198 5.0 7.0 0.00 0.00 0.00 57 1015.7
20260904184607 61 322 1.0 10.0 0.00 0.00 0.00 54 1015.7
20260904184049 61 263 4.0 10.0 0.00 0.00 0.00 53 1015.6
20260904183528 61 210 5.0 8.0 0.00 0.00 0.00 53 1015.7
20260904183032 61 194 2.0 7.0 0.00 0.00 0.00 53 1015.9
20260904182550 61 208 3.0 9.0 0.00 0.00 0.00 54 1015.9
20260904182031 62 280 6.0 9.0 0.00 0.00 0.00 53 1016.0
20260904181538 62 301 4.0 8.0 0.00 0.00 0.00 51 1015.9
20260904181043 61 330 1.0 9.0 0.00 0.00 0.00 51 1016.0
20260904180544 61 354 5.0 8.0 0.00 0.00 0.00 52 1016.0
20260904180046 61 283 5.0 9.0 0.00 0.00 0.00 51 1016.0
20260904175547 61 295 7.0 9.0 0.00 0.00 0.00 50 1016.1
20260904175028 62 302 3.0 9.0 0.00 0.00 0.00 49 1016.0
20260904174531 62 300 6.0 9.0 0.00 0.00 0.00 48 1016.0
20260904174033 63 276 3.0 6.0 0.00 0.00 0.00 54 1016.0
20260904173536 62 290 3.0 7.0 0.00 0.00 0.00 52 1016.0
20260904173036 62 302 5.0 8.0 0.00 0.00 0.00 51 1016.0
20260904172539 62 324 6.0 8.0 0.00 0.00 0.00 54 1016.0
20260904172042 62 247 2.0 9.0 0.00 0.00 0.00 55 1016.1
20260904171528 62 277 5.0 9.0 0.00 0.00 0.00 54 1016.0
20260904171032 62 241 5.0 9.0 0.00 0.00 0.00 52 1016.0
20260904170534 61 338 5.0 9.0 0.00 0.00 0.00 54 1016.2
20260904170038 61 327 4.0 10.0 0.00 0.00 0.00 55 1016.3
20260904165538 61 259 4.0 10.0 0.00 0.00 0.00 55 1016.1
20260904165041 61 156 2.0 6.0 0.00 0.00 0.00 54 1016.3
20260904164543 61 221 3.0 6.0 0.00 0.00 0.00 53 1016.5
20260904164045 60 326 3.0 7.0 0.00 0.00 0.00 54 1016.4
20260904163529 61 289 5.0 7.0 0.00 0.00 0.00 50 1016.6
20260904163032 60 266 2.0 6.0 0.00 0.00 0.00 52 1016.6
20260904162534 59 169 1.0 6.0 0.00 0.00 0.00 50 1016.7
20260904162037 59 202 3.0 7.0 0.00 0.00 0.00 51 1016.6
20260904161538 59 240 3.0 9.0 0.00 0.00 0.00 50 1016.7
20260904161043 59 142 5.0 9.0 0.00 0.00 0.00 49 1016.8
20260904160605 59 184 4.0 10.0 0.00 0.00 0.00 53 1017.0
20260904160045 59 227 2.0 10.0 0.00 0.00 0.00 55 1016.9
20260904155547 59 190 3.0 6.0 0.00 0.00 0.00 55 1016.9
20260904155047 58 181 3.0 8.0 0.00 0.00 0.00 55 1016.7
20260904154529 59 186 4.0 9.0 0.00 0.00 0.00 56 1016.9
20260904154050 59 210 5.0 9.0 0.00 0.00 0.00 54 1017.0
20260904153529 59 179 5.0 9.0 0.00 0.00 0.00 55 1017.1
20260904153030 59 288 5.0 9.0 0.00 0.00 0.00 52 1017.1
20260904152530 59 214 5.0 9.0 0.00 0.00 0.00 55 1016.9
20260904152032 59 171 4.0 9.0 0.00 0.00 0.00 55 1016.9
20260904151532 59 217 6.0 10.0 0.00 0.00 0.00 53 1017.3
20260904151052 59 334 4.0 6.0 0.00 0.00 0.00 59 1017.2
20260904150551 58 63 4.0 13.0 0.00 0.00 0.00 62 1017.2
20260904150035 57 80 4.0 13.0 0.00 0.00 0.00 64 1017.4
20260904145536 57 145 4.0 9.0 0.00 0.00 0.00 65 1017.3
20260904145058 57 210 3.0 10.0 0.00 0.00 0.00 68 1017.3
20260904144539 56 190 3.0 11.0 0.00 0.00 0.00 70 1017.3
20260904144039 56 177 6.0 15.0 0.00 0.00 0.00 70 1017.3
20260904143601 56 150 8.0 15.0 0.00 0.00 0.00 70 1017.2
20260904143042 56 165 6.0 10.0 0.00 0.00 0.00 71 1017.3
20260904142606 55 203 6.0 10.0 0.00 0.00 0.00 73 1017.2
20260904142048 54 148 5.0 13.0 0.00 0.00 0.00 74 1017.2
20260904141609 54 152 4.0 13.0 0.00 0.00 0.00 75 1017.5
20260904141029 54 176 4.0 13.0 0.00 0.00 0.00 74 1017.5
20260904140530 54 158 7.0 15.0 0.00 0.00 0.00 73 1017.6
20260904140051 54 213 8.0 13.0 0.00 0.00 0.00 75 1017.5
20260904135531 54 171 7.0 13.0 0.00 0.00 0.00 76 1017.6
20260904135034 54 168 7.0 14.0 0.00 0.00 0.00 79 1017.5
20260904134535 53 234 10.0 14.0 0.00 0.00 0.00 79 1017.7
20260904134056 53 161 7.0 12.0 0.00 0.00 0.00 78 1017.7
20260904133532 53 179 8.0 12.0 0.00 0.00 0.00 80 1017.9
20260904133053 53 185 7.0 11.0 0.00 0.00 0.00 84 1018.1
20260904132539 53 124 6.0 11.0 0.00 0.00 0.00 84 1018.1
20260904132039 53 118 7.0 10.0 0.00 0.00 0.00 87 1018.2
20260904131537 52 165 6.0 10.0 0.00 0.00 0.00 86 1018.2
20260904131040 52 126 5.0 9.0 0.00 0.00 0.00 87 1018.2
20260904130557 52 161 4.0 9.0 0.00 0.00 0.00 87 1018.3
20260904130036 52 173 4.0 8.0 0.00 0.00 0.00 87 1018.4
20260904125538 52 101 5.0 9.0 0.00 0.00 0.00 88 1018.4
20260904125041 51 141 4.0 9.0 0.00 0.00 0.00 87 1018.3
20260904124541 52 174 3.0 6.0 0.00 0.00 0.00 88 1018.4
20260904124103 51 147 4.0 7.0 0.00 0.00 0.00 89 1018.4
20260904123544 51 157 3.0 7.0 0.00 0.00 0.00 90 1018.4
20260904123048 51 174 4.0 7.0 0.00 0.00 0.00 90 1018.4
20260904122531 51 141 3.0 7.0 0.00 0.00 0.00 91 1018.2
20260904122033 51 160 5.0 9.0 0.00 0.00 0.00 90 1018.2
20260904121553 51 172 5.0 9.0 0.00 0.00 0.00 89 1018.1
20260904121036 51 145 4.0 8.0 0.00 0.00 0.00 91 1018.1
20260904120536 50 191 4.0 8.0 0.00 0.00 0.00 91 1018.1
20260904120041 50 181 5.0 8.0 0.00 0.00 0.00 92 1018.2
20260904115543 50 200 4.0 8.0 0.00 0.00 0.00 93 1018.3
20260904115046 50 160 3.0 8.0 0.00 0.00 0.00 93 1018.3
20260904114528 50 200 5.0 11.0 0.00 0.00 0.00 94 1018.2
20260904114029 50 172 6.0 11.0 0.00 0.00 0.00 94 1018.3
20260904113536 50 177 5.0 8.0 0.00 0.00 0.00 94 1018.2
20260904113038 50 158 5.0 8.0 0.00 0.00 0.00 94 1018.1
20260904112539 50 238 5.0 10.0 0.00 0.00 0.00 93 1018.3
20260904112042 50 174 4.0 10.0 0.00 0.00 0.00 93 1018.4
20260904111542 50 204 6.0 10.0 0.00 0.00 0.00 93 1018.4
20260904111041 51 177 5.0 10.0 0.00 0.00 0.00 93 1018.5
20260904110544 51 177 7.0 10.0 0.00 0.00 0.00 93 1018.4
20260904110043 51 216 6.0 9.0 0.00 0.00 0.00 93 1018.4
20260904105544 51 201 6.0 9.0 0.00 0.00 0.00 93 1018.3
20260904105045 51 205 6.0 9.0 0.00 0.00 0.00 93 1018.4
20260904104544 51 206 7.0 8.0 0.00 0.00 0.00 93 1018.4
20260904104104 51 212 4.0 8.0 0.00 0.00 0.00 94 1018.2
20260904103543 51 172 4.0 8.0 0.00 0.00 0.00 94 1018.2
20260904103043 51 153 5.0 9.0 0.00 0.00 0.00 94 1018.1
20260904102605 51 176 5.0 11.0 0.00 0.00 0.00 94 1018.1
20260904102029 51 196 7.0 11.0 0.00 0.00 0.00 94 1018.0
20260904101550 51 213 5.0 9.0 0.00 0.00 0.00 94 1018.0
20260904101047 51 166 5.0 12.0 0.00 0.00 0.00 94 1017.7
20260904100545 51 172 5.0 12.0 0.00 0.00 0.00 95 1017.9
20260904100047 51 204 5.0 11.0 0.00 0.00 0.00 95 1017.6
20260904095526 51 183 5.0 11.0 0.00 0.00 0.00 95 1017.5
20260904095030 51 202 6.0 10.0 0.00 0.00 0.00 95 1017.4
20260904094532 51 186 7.0 10.0 0.00 0.00 0.00 95 1017.4
20260904094056 51 207 5.0 9.0 0.00 0.00 0.00 95 1017.1
20260904093536 51 165 6.0 9.0 0.00 0.00 0.00 95 1017.0
20260904093039 52 219 5.0 9.0 0.00 0.00 0.00 95 1017.1
20260904092540 52 158 3.0 6.0 0.00 0.00 0.00 95 1017.1
20260904092043 52 222 4.0 7.0 0.00 0.00 0.00 95 1017.1
20260904091544 52 201 4.0 7.0 0.00 0.00 0.00 95 1017.0
20260904091030 52 196 5.0 6.0 0.00 0.00 0.00 95 1016.9
20260904090531 52 207 4.0 6.0 0.00 0.00 0.00 95 1017.0
20260904090036 52 172 4.0 8.0 0.00 0.00 0.00 95 1016.9
20260904085542 52 192 4.0 11.0 0.00 0.00 0.00 95 1016.8
20260904085027 52 195 8.0 11.0 0.00 0.00 0.00 95 1016.8
20260904084611 52 234 6.0 10.0 0.00 0.00 0.00 95 1017.0
20260904084048 52 186 5.0 10.0 0.00 0.00 0.00 95 1016.7
20260904083608 52 224 6.0 16.0 0.00 0.00 0.00 95 1016.7
20260904083029 52 186 8.0 16.0 0.00 0.00 0.00 95 1016.7
20260904082552 52 217 8.0 13.0 0.00 0.00 0.00 95 1016.6
20260904082051 52 196 7.0 13.0 0.00 0.00 0.00 95 1016.6
20260904081533 52 212 9.0 13.0 0.00 0.00 0.00 95 1016.6
20260904081033 52 183 4.0 10.0 0.00 0.00 0.00 96 1016.5
20260904080534 52 171 6.0 10.0 0.00 0.00 0.00 96 1016.3
20260904080038 52 213 7.0 9.0 0.00 0.00 0.00 96 1016.2
20260904075540 52 197 5.0 8.0 0.00 0.00 0.00 96 1016.3
20260904075041 52 162 4.0 9.0 0.00 0.00 0.00 96 1016.1
20260904074542 52 164 5.0 9.0 0.00 0.00 0.00 96 1016.3
20260904074049 52 155 3.0 7.0 0.00 0.00 0.00 96 1016.2
20260904073551 53 167 4.0 8.0 0.00 0.00 0.00 96 1016.3
20260904073031 52 188 3.0 9.0 0.00 0.00 0.00 96 1016.2
20260904072533 52 195 7.0 11.0 0.00 0.00 0.00 96 1016.1
20260904072036 52 174 4.0 11.0 0.00 0.00 0.00 96 1016.0
20260904071540 53 211 7.0 15.0 0.00 0.00 0.00 96 1016.0
20260904071044 53 184 10.0 15.0 0.00 0.00 0.00 96 1015.9
20260904070525 54 168 6.0 11.0 0.00 0.00 0.00 96 1015.8
20260904070048 54 180 4.0 8.0 0.00 0.00 0.00 96 1015.5
20260904065547 54 170 4.0 8.0 0.00 0.00 0.00 96 1015.6
20260904065029 54 172 4.0 8.0 0.00 0.00 0.00 96 1015.6
20260904064531 54 203 5.0 8.0 0.00 0.00 0.00 96 1015.6
20260904064034 54 211 4.0 8.0 0.00 0.00 0.00 96 1015.6
20260904062558 55 219 327.0 327.0 0.00 0.00 0.00 96 1015.2
20260904061538 55 216 3.0 8.0 0.00 0.00 0.00 96 1015.5
20260904061037 55 219 6.0 9.0 0.00 0.00 0.00 96 1015.4
20260904060538 56 204 5.0 7.0 0.00 0.00 0.00 96 1015.3
20260904060043 56 190 3.0 6.0 0.00 0.00 0.00 96 1015.2
20260904055530 57 194 4.0 5.0 0.00 0.00 0.00 96 1015.1
20260904055032 57 192 4.0 5.0 0.00 0.00 0.00 96 1015.0
20260904054534 57 236 2.0 3.0 0.00 0.00 0.00 96 1015.0
20260904054036 57 255 1.0 2.0 0.00 0.00 0.00 96 1014.9
20260904053558 57 255 0.0 2.0 0.00 0.00 0.00 96 1014.9
20260904053041 57 255 0.0 4.0 0.00 0.00 0.00 96 1015.0
20260904052543 57 255 1.0 4.0 0.00 0.00 0.00 96 1015.1
20260904052105 56 166 0.0 2.0 0.00 0.00 0.00 96 1015.2
20260904051546 56 154 1.0 2.0 0.00 0.00 0.00 96 1015.2
20260904051049 56 179 0.0 0.0 0.00 0.00 0.00 96 1015.1
20260904050530 56 123 0.0 0.0 0.00 0.00 0.00 96 1015.1
20260904050031 56 123 0.0 0.0 0.00 0.00 0.00 96 1015.3
20260904045553 56 123 0.0 0.0 0.00 0.00 0.00 96 1015.2
20260904045030 56 123 0.0 1.0 0.00 0.00 0.00 96 1015.2
20260904044533 56 123 0.0 2.0 0.00 0.00 0.00 96 1015.4
20260904044038 56 123 0.0 3.0 0.00 0.00 0.00 95 1015.5